Regional Weather Roundup
Issued by NWS Sterling, VA

Home | Current Version | Previous Version | Text Only | Print | Product List | Glossary On
Versions: 1 2 3 4 5 6 7 8 9 10 11 12 13 14 15 16 17 18 19 20 21 22 23 24 25 26 27
000
ASUS41 KLWX 272211
RWRLWX

REGIONAL WEATHER ROUNDUP
NATIONAL WEATHER SERVICE BALTIMORE MD/WASHINGTON DC
500 PM EST MON FEB 27 2017

Note: "FAIR" indicates few or no clouds below 12,000 feet
with no significant weather and/or obstructions to visibility.
 TC=TEMPERATURE CELSIUS

 * =Non NWS site. Station does not report precipitation (e.g. rain,
    snow, etc.), thunder, or fog.

DCZ001-MDZ009-015-VAZ040>042-051-053>054-272300-
WASHINGTON METRO

CITY           SKY/WX    TMP DP  RH WIND       PRES   REMARKS
WASHINGTON NAT CLOUDY    54  33  45 S8        30.40S
DULLES         CLOUDY    54  20  26 S6        30.37F
ANDREWS AFB    CLOUDY    53  27  37 S7        30.39R
FT BELVOIR     CLOUDY    54  28  36 SE8       30.39S
QUANTICO       CLOUDY    54  36  50 CALM      30.40S
COLLEGE PARK*  CLOUDY    54  23  30 S5        30.40S
LEESBURG*      CLOUDY    54  28  37 MISG      30.37F
MANASSAS*      MOSUNNY   55  26  32 S6        30.37F
GAITHERSBURG*  CLOUDY    52  23  32 SE7       30.42S

$$

MDZ006>007-011-014-272300-
BALTIMORE METRO

CITY           SKY/WX    TMP DP  RH WIND       PRES   REMARKS
BWI AIRPORT    CLOUDY    53  25  33 SE3       30.39R
MD SCIENCE CTR   N/A     55  22  27 MISG      30.40R
MARTIN STATE   CLOUDY    52  37  58 S9        30.43R
ANNAPOLIS      CLOUDY    50  38  63 S8        30.41R
FORT MEADE*    CLOUDY    52  27  37 CALM      30.42S

$$

MDZ012-015-019>023-272300-
MARYLAND EASTERN SHORE

CITY           SKY/WX    TMP DP  RH WIND       PRES   REMARKS
OCEAN CITY     MOCLDY    50  37  61 CALM      30.45R
SALISBURY      CLOUDY    55  31  39 SE6       30.43R
BAY BRIDGE AP* CLOUDY    50  36  57 S7        30.42R
CAMBRIDGE*     PTCLDY    54  30  40 S10       30.42S
EASTON*        CLOUDY    54  32  43 S6        30.44S

$$

MDZ017>025-272300-
SOUTHERN MARYLAND

CITY           SKY/WX    TMP DP  RH WIND       PRES   REMARKS
PATUXENT RIVER CLOUDY    51  35  54 SE9       30.41S
ST INIGOES     CLOUDY    53  31  42 SE6       30.40S
LEONARDTOWN*   CLOUDY    52  32  46 SE3       30.42S

$$

MDZ003>005-272300-
NORTH CENTRAL MARYLAND

CITY           SKY/WX    TMP DP  RH WIND       PRES   REMARKS
FREDERICK*     CLOUDY    52  25  35 SW6       30.40S
HAGERSTOWN APT CLOUDY    51  36  56 S3        30.34S
WESTMINSTER*   CLOUDY    52  28  40 SW9       30.37R

$$

MDZ501>502-272300-
WESTERN MARYLAND

CITY           SKY/WX    TMP DP  RH WIND       PRES   REMARKS
OAKLAND*       CLOUDY    36  34  93 SW5       30.27S
CUMBERLAND*    CLOUDY    50  36  57 NE3       30.35S

$$

VAZ025>031-272300-
SHENANDOAH VALLEY

CITY           SKY/WX    TMP DP  RH WIND       PRES   REMARKS
WINCHESTER*    CLOUDY    50  23  34 SE5       30.34S
FRONT ROYAL*   CLOUDY    52  27  37 CALM      30.34R
LURAY*         CLOUDY    54  28  37 S6        30.33F
NEW MARKET*    CLOUDY    52  20  29 SW6       30.33F
STAUNTON*      CLOUDY    51  26  37 CALM      30.36S
WAYNESBORO*    CLOUDY    51  20  29 SE3       30.33F

$$

WVZ021-048>050-054>055-272300-
EASTERN WEST VIRGINIA PANHANDLE

CITY           SKY/WX    TMP DP  RH WIND       PRES   REMARKS
MARTINSBURG    CLOUDY    52  22  30 SE6       30.34S
PETERSBURG*    CLOUDY    56  24  28 S8        30.30F

$$

VAZ036>039-050-272300-
CENTRAL FOOTHILLS

CITY           SKY/WX    TMP DP  RH WIND       PRES   REMARKS
CHARLOTTESVILL CLOUDY    57  23  26 CALM      30.35S
CULPEPER*      CLOUDY    56  26  31 CALM      30.39R
ORANGE*        CLOUDY    55  27  33 CALM      30.38R
GORDONSVILLE*  CLOUDY    56  27  32 MISG      30.36R
WARRENTON*     CLOUDY    56  18  22 CALM      30.36F

$$

VAZ055>057-272300-
NORTH AND CENTRAL PIEDMONT

CITY           SKY/WX    TMP DP  RH WIND       PRES   REMARKS
FREDERICKSBRG* CLOUDY    56  31  38 SE8       30.37F
STAFFORD*      CLOUDY    54  28  36 CALM      30.42F

$$

NCZ024-NYZ072-PAZ021-071-VAZ022-071-272300-
OTHER REGIONAL OBSERVATIONS

CITY           SKY/WX    TMP DP  RH WIND       PRES   REMARKS
NEW YORK CITY  MOCLDY    53  21  28 W8        30.38R
PHILADELPHIA   CLOUDY    53  24  32 SW13      30.41R
PITTSBURGH     CLOUDY    42  37  82 S5        30.28F
ROANOKE        CLOUDY    56  25  30 S3        30.31F
RICHMOND       CLOUDY    59  27  29 VRB3      30.37F
RALEIGH        PTSUNNY   63  20  19 S10       30.34F

$$

ANZ530>537-272300-
MARINE OBSERVATIONS

STATION/POSITION TIME  TEMP    WIND        PRES
                       AIR SEA DIR/SP/G
                 (UTC) (F)     (DEG/KT/KT) (MB)
THOMAS PT LIGHT  2200   48 44  170/ 12/ 12   N/A
BALT KEY BRIDGE  2148   50     160/  9/ 10 1029.6R
COVE POINT       2142   48     180/  9/ 10 1030.1F
LEWISETTA        2142   54 49  140/  6/  6 1029.5R
SOLOMONS ISLAND  2148          110/  6/  7   N/A
PINEY POINT      2148          140/  7/  7   N/A

$$





USA.gov is the U.S. government's official web portal to all federal, state and local government web resources and services.